Year,Month,Day,Hour,Minute,Value (Times are PST for temperature in C)
2016,08,25,00,00,21.00
2016,08,25,00,01,21.00
2016,08,25,00,02,21.00
2016,08,25,00,03,20.90
2016,08,25,00,04,20.90
2016,08,25,00,05,20.90
2016,08,25,00,06,20.90
2016,08,25,00,07,20.80
2016,08,25,00,08,20.80
2016,08,25,00,09,20.80
2016,08,25,00,10,20.80
2016,08,25,00,11,20.70
2016,08,25,00,12,20.70
2016,08,25,00,13,20.70
2016,08,25,00,14,20.60
2016,08,25,00,15,20.60
2016,08,25,00,16,20.60
2016,08,25,00,17,20.60
2016,08,25,00,18,20.50
2016,08,25,00,19,20.40
2016,08,25,00,20,20.40
2016,08,25,00,21,20.40
2016,08,25,00,22,20.30
2016,08,25,00,23,20.30
2016,08,25,00,24,20.30
2016,08,25,00,25,20.40
2016,08,25,00,26,20.40
2016,08,25,00,27,20.40
2016,08,25,00,28,20.40
2016,08,25,00,29,20.40
2016,08,25,00,30,20.40
2016,08,25,00,31,20.40
2016,08,25,00,32,20.40
2016,08,25,00,33,20.40
2016,08,25,00,34,20.40
2016,08,25,00,35,20.40
2016,08,25,00,36,20.40
2016,08,25,00,37,20.40
2016,08,25,00,38,20.40
2016,08,25,00,39,20.40
2016,08,25,00,40,20.40
2016,08,25,00,41,20.30
2016,08,25,00,42,20.30
2016,08,25,00,43,20.30
2016,08,25,00,44,20.30
2016,08,25,00,45,20.20
2016,08,25,00,46,20.20
2016,08,25,00,47,20.10
2016,08,25,00,48,20.10
2016,08,25,00,49,20.00
2016,08,25,00,50,20.00
2016,08,25,00,51,19.90
2016,08,25,00,52,19.90
2016,08,25,00,53,19.90
2016,08,25,00,54,19.90
2016,08,25,00,55,19.90
2016,08,25,00,56,19.90
2016,08,25,00,57,19.90
2016,08,25,00,58,20.00
2016,08,25,00,59,20.00
2016,08,25,01,00,20.00
2016,08,25,01,01,20.00
2016,08,25,01,02,20.00
2016,08,25,01,03,19.90
2016,08,25,01,04,19.90
2016,08,25,01,05,19.90
2016,08,25,01,06,19.90
2016,08,25,01,07,19.90
2016,08,25,01,08,19.90
2016,08,25,01,09,19.90
2016,08,25,01,10,19.80
2016,08,25,01,11,19.80
2016,08,25,01,12,19.80
2016,08,25,01,13,19.80
2016,08,25,01,14,19.80
2016,08,25,01,15,19.70
2016,08,25,01,16,19.70
2016,08,25,01,17,19.70
2016,08,25,01,18,19.70
2016,08,25,01,19,19.70
2016,08,25,01,20,19.70
2016,08,25,01,21,19.60
2016,08,25,01,22,19.60
2016,08,25,01,23,19.60
2016,08,25,01,24,19.50
2016,08,25,01,25,19.50
2016,08,25,01,26,19.40
2016,08,25,01,27,19.40
2016,08,25,01,28,19.30
2016,08,25,01,29,19.30
2016,08,25,01,30,19.30
2016,08,25,01,31,19.30
2016,08,25,01,32,19.40
2016,08,25,01,33,19.40
2016,08,25,01,34,19.40
2016,08,25,01,35,19.40
2016,08,25,01,36,19.40
2016,08,25,01,37,19.30
2016,08,25,01,38,19.30
2016,08,25,01,39,19.20
2016,08,25,01,40,19.20
2016,08,25,01,41,19.20
2016,08,25,01,42,19.10
2016,08,25,01,43,19.10
2016,08,25,01,44,19.00
2016,08,25,01,45,19.00
2016,08,25,01,46,18.90
2016,08,25,01,47,18.90
2016,08,25,01,48,18.90
2016,08,25,01,49,18.80
2016,08,25,01,50,18.80
2016,08,25,01,51,18.80
2016,08,25,01,52,18.80
2016,08,25,01,53,18.80
2016,08,25,01,54,18.80
2016,08,25,01,55,18.70
2016,08,25,01,56,18.70
2016,08,25,01,57,18.60
2016,08,25,01,58,18.60
2016,08,25,01,59,18.60
2016,08,25,02,00,18.60
2016,08,25,02,01,18.60
2016,08,25,02,02,18.60
2016,08,25,02,03,18.60
2016,08,25,02,04,18.60
2016,08,25,02,05,18.70
2016,08,25,02,06,18.70
2016,08,25,02,07,18.70
2016,08,25,02,08,18.80
2016,08,25,02,09,18.80
2016,08,25,02,10,18.80
2016,08,25,02,11,18.80
2016,08,25,02,12,18.80
2016,08,25,02,13,18.80
2016,08,25,02,14,18.80
2016,08,25,02,15,18.90
2016,08,25,02,16,18.90
2016,08,25,02,17,18.90
2016,08,25,02,18,18.90
2016,08,25,02,19,18.90
2016,08,25,02,20,18.90
2016,08,25,02,21,18.90
2016,08,25,02,22,18.80
2016,08,25,02,23,18.80
2016,08,25,02,24,18.80
2016,08,25,02,25,18.80
2016,08,25,02,26,18.80
2016,08,25,02,27,18.80
2016,08,25,02,28,18.80
2016,08,25,02,29,18.80
2016,08,25,02,30,18.80
2016,08,25,02,31,18.80
2016,08,25,02,32,18.80
2016,08,25,02,33,18.80
2016,08,25,02,34,18.90
2016,08,25,02,35,18.90
2016,08,25,02,36,18.90
2016,08,25,02,37,18.90
2016,08,25,02,38,18.90
2016,08,25,02,39,18.90
2016,08,25,02,40,18.90
2016,08,25,02,41,18.90
2016,08,25,02,42,18.90
2016,08,25,02,43,18.80
2016,08,25,02,44,18.80
2016,08,25,02,45,18.80
2016,08,25,02,46,18.80
2016,08,25,02,47,18.80
2016,08,25,02,48,18.80
2016,08,25,02,49,18.80
2016,08,25,02,50,18.80
2016,08,25,02,51,18.80
2016,08,25,02,52,18.70
2016,08,25,02,53,18.70
2016,08,25,02,54,18.70
2016,08,25,02,55,18.60
2016,08,25,02,56,18.60
2016,08,25,02,57,18.60
2016,08,25,02,58,18.60
2016,08,25,02,59,18.60
2016,08,25,03,00,18.60
2016,08,25,03,01,18.70
2016,08,25,03,02,18.70
2016,08,25,03,03,18.70
2016,08,25,03,04,18.70
2016,08,25,03,05,18.80
2016,08,25,03,06,18.80
2016,08,25,03,07,18.80
2016,08,25,03,08,18.80
2016,08,25,03,09,18.90
2016,08,25,03,10,18.90
2016,08,25,03,11,18.90
2016,08,25,03,12,18.90
2016,08,25,03,13,18.90
2016,08,25,03,14,18.90
2016,08,25,03,15,18.90
2016,08,25,03,16,18.90
2016,08,25,03,17,18.80
2016,08,25,03,18,18.80
2016,08,25,03,19,18.80
2016,08,25,03,20,18.70
2016,08,25,03,21,18.70
2016,08,25,03,22,18.70
2016,08,25,03,23,18.60
2016,08,25,03,24,18.60
2016,08,25,03,25,18.60
2016,08,25,03,26,18.60
2016,08,25,03,27,18.60
2016,08,25,03,28,18.50
2016,08,25,03,29,18.50
2016,08,25,03,30,18.40
2016,08,25,03,31,18.30
2016,08,25,03,32,18.30
2016,08,25,03,33,18.30
2016,08,25,03,34,18.20
2016,08,25,03,35,18.20
2016,08,25,03,36,18.10
2016,08,25,03,37,18.00
2016,08,25,03,38,17.90
2016,08,25,03,39,17.90
2016,08,25,03,40,17.80
2016,08,25,03,41,17.70
2016,08,25,03,42,17.70
2016,08,25,03,43,17.60
2016,08,25,03,44,17.60
2016,08,25,03,45,17.60
2016,08,25,03,46,17.60
2016,08,25,03,47,17.60
2016,08,25,03,48,17.60
2016,08,25,03,49,17.60
2016,08,25,03,50,17.60
2016,08,25,03,51,17.60
2016,08,25,03,52,17.60
2016,08,25,03,53,17.60
2016,08,25,03,54,17.60
2016,08,25,03,55,17.60
2016,08,25,03,56,17.60
2016,08,25,03,57,17.60
2016,08,25,03,58,17.70
2016,08,25,03,59,17.70
2016,08,25,04,00,17.70
2016,08,25,04,01,17.70
2016,08,25,04,02,17.80
2016,08,25,04,03,17.80
2016,08,25,04,04,17.90
2016,08,25,04,05,17.90
2016,08,25,04,06,17.90
2016,08,25,04,07,17.90
2016,08,25,04,08,17.90
2016,08,25,04,09,17.90
2016,08,25,04,10,17.90
2016,08,25,04,11,17.90
2016,08,25,04,12,17.90
2016,08,25,04,13,17.90
2016,08,25,04,14,17.90
2016,08,25,04,15,17.90
2016,08,25,04,16,17.90
2016,08,25,04,17,17.90
2016,08,25,04,18,17.90
2016,08,25,04,19,17.80
2016,08,25,04,20,17.80
2016,08,25,04,21,17.80
2016,08,25,04,22,17.80
2016,08,25,04,23,17.80
2016,08,25,04,24,17.80
2016,08,25,04,25,17.80
2016,08,25,04,26,17.80
2016,08,25,04,27,17.80
2016,08,25,04,28,17.80
2016,08,25,04,29,17.80
2016,08,25,04,30,17.70
2016,08,25,04,31,17.70
2016,08,25,04,32,17.70
2016,08,25,04,33,17.70
2016,08,25,04,34,17.70
2016,08,25,04,35,17.60
2016,08,25,04,36,17.60
2016,08,25,04,37,17.70
2016,08,25,04,38,17.70
2016,08,25,04,39,17.70
2016,08,25,04,40,17.70
2016,08,25,04,41,17.70
2016,08,25,04,42,17.70
2016,08,25,04,43,17.70
2016,08,25,04,44,17.70
2016,08,25,04,45,17.70
2016,08,25,04,46,17.70
2016,08,25,04,47,17.60
2016,08,25,04,48,17.60
2016,08,25,04,49,17.50
2016,08,25,04,50,17.50
2016,08,25,04,51,17.40
2016,08,25,04,52,17.30
2016,08,25,04,53,17.30
2016,08,25,04,54,17.30
2016,08,25,04,55,17.30
2016,08,25,04,56,17.30
2016,08,25,04,57,17.30
2016,08,25,04,58,17.30
2016,08,25,04,59,17.30
2016,08,25,05,00,17.40
2016,08,25,05,01,17.40
2016,08,25,05,02,17.50
2016,08,25,05,03,17.60
2016,08,25,05,04,17.60
2016,08,25,05,05,17.60
2016,08,25,05,06,17.70
2016,08,25,05,07,17.70
2016,08,25,05,08,17.70
2016,08,25,05,09,17.70
2016,08,25,05,10,17.70
2016,08,25,05,11,17.70
2016,08,25,05,12,17.70
2016,08,25,05,13,17.70
2016,08,25,05,14,17.80
2016,08,25,05,15,17.80
2016,08,25,05,16,17.90
2016,08,25,05,17,17.90
2016,08,25,05,18,18.00
2016,08,25,05,19,18.10
2016,08,25,05,20,18.10
2016,08,25,05,21,18.10
2016,08,25,05,22,18.20
2016,08,25,05,23,18.20
2016,08,25,05,24,18.20
2016,08,25,05,25,18.10
2016,08,25,05,26,18.10
2016,08,25,05,27,18.10
2016,08,25,05,28,18.00
2016,08,25,05,29,18.00
2016,08,25,05,30,18.00
2016,08,25,05,31,17.90
2016,08,25,05,32,17.80
2016,08,25,05,33,17.70
2016,08,25,05,34,17.60
2016,08,25,05,35,17.50
2016,08,25,05,36,17.50
2016,08,25,05,37,17.40
2016,08,25,05,38,17.30
2016,08,25,05,39,17.30
2016,08,25,05,40,17.30
2016,08,25,05,41,17.30
2016,08,25,05,42,17.20
2016,08,25,05,43,17.20
2016,08,25,05,44,17.20
2016,08,25,05,45,17.20
2016,08,25,05,46,17.20
2016,08,25,05,47,17.20
2016,08,25,05,48,17.20
2016,08,25,05,49,17.20
2016,08,25,05,50,17.10
2016,08,25,05,51,17.10
2016,08,25,05,52,17.10
2016,08,25,05,53,17.10
2016,08,25,05,54,17.10
2016,08,25,05,55,17.10
2016,08,25,05,56,17.10
2016,08,25,05,57,17.10
2016,08,25,05,58,17.20
2016,08,25,05,59,17.20
2016,08,25,06,00,17.10
2016,08,25,06,01,17.10
2016,08,25,06,02,17.10
2016,08,25,06,03,17.10
2016,08,25,06,04,17.10
2016,08,25,06,05,17.10
2016,08,25,06,06,17.10
2016,08,25,06,07,17.10
2016,08,25,06,08,17.10
2016,08,25,06,09,17.10
2016,08,25,06,10,17.10
2016,08,25,06,11,17.10
2016,08,25,06,12,17.10
2016,08,25,06,13,17.10
2016,08,25,06,14,17.10
2016,08,25,06,15,17.10
2016,08,25,06,16,17.00
2016,08,25,06,17,17.00
2016,08,25,06,18,17.00
2016,08,25,06,19,16.90
2016,08,25,06,20,16.90
2016,08,25,06,21,16.90
2016,08,25,06,22,16.90
2016,08,25,06,23,16.90
2016,08,25,06,24,16.90
2016,08,25,06,25,16.80
2016,08,25,06,26,16.80
2016,08,25,06,27,16.80
2016,08,25,06,28,16.80
2016,08,25,06,29,16.80
2016,08,25,06,30,16.70
2016,08,25,06,31,16.80
2016,08,25,06,32,16.70
2016,08,25,06,33,16.70
2016,08,25,06,34,16.70
2016,08,25,06,35,16.70
2016,08,25,06,36,16.70
2016,08,25,06,37,16.60
2016,08,25,06,38,16.60
2016,08,25,06,39,16.50
2016,08,25,06,40,16.50
2016,08,25,06,41,16.40
2016,08,25,06,42,16.40
2016,08,25,06,43,16.40
2016,08,25,06,44,16.40
2016,08,25,06,45,16.40
2016,08,25,06,46,16.40
2016,08,25,06,47,16.40
2016,08,25,06,48,16.40
2016,08,25,06,49,16.40
2016,08,25,06,50,16.40
2016,08,25,06,51,16.40
2016,08,25,06,52,16.40
2016,08,25,06,53,16.40
2016,08,25,06,54,16.40
2016,08,25,06,55,16.40
2016,08,25,06,56,16.40
2016,08,25,06,57,16.40
2016,08,25,06,58,16.40
2016,08,25,06,59,16.40
2016,08,25,07,00,16.40
2016,08,25,07,01,16.40
2016,08,25,07,02,16.40
2016,08,25,07,03,16.40
2016,08,25,07,04,16.40
2016,08,25,07,05,16.40
2016,08,25,07,06,16.40
2016,08,25,07,07,16.40
2016,08,25,07,08,16.40
2016,08,25,07,09,16.40
2016,08,25,07,10,16.40
2016,08,25,07,11,16.40
2016,08,25,07,12,16.40
2016,08,25,07,13,16.40
2016,08,25,07,14,16.40
2016,08,25,07,15,16.40
2016,08,25,07,16,16.50
2016,08,25,07,17,16.50
2016,08,25,07,18,16.60
2016,08,25,07,19,16.60
2016,08,25,07,20,16.70
2016,08,25,07,21,16.80
2016,08,25,07,22,16.90
2016,08,25,07,23,17.00
2016,08,25,07,24,17.10
2016,08,25,07,25,17.10
2016,08,25,07,26,17.20
2016,08,25,07,27,17.20
2016,08,25,07,28,17.20
2016,08,25,07,29,17.30
2016,08,25,07,30,17.30
2016,08,25,07,31,17.30
2016,08,25,07,32,17.40
2016,08,25,07,33,17.40
2016,08,25,07,34,17.40
2016,08,25,07,35,17.40
2016,08,25,07,36,17.50
2016,08,25,07,37,17.50
2016,08,25,07,38,17.50
2016,08,25,07,39,17.50
2016,08,25,07,40,17.50
2016,08,25,07,41,17.50
2016,08,25,07,42,17.50
2016,08,25,07,43,17.60
2016,08,25,07,44,17.60
2016,08,25,07,45,17.60
2016,08,25,07,46,17.70
2016,08,25,07,47,17.80
2016,08,25,07,48,17.80
2016,08,25,07,49,17.90
2016,08,25,07,50,18.00
2016,08,25,07,51,18.10
2016,08,25,07,52,18.10
2016,08,25,07,53,18.20
2016,08,25,07,54,18.20
2016,08,25,07,55,18.30
2016,08,25,07,56,18.30
2016,08,25,07,57,18.30
2016,08,25,07,58,18.30
2016,08,25,07,59,18.30
2016,08,25,08,00,18.30
2016,08,25,08,01,18.40
2016,08,25,08,02,18.40
2016,08,25,08,03,18.40
2016,08,25,08,04,18.50
2016,08,25,08,05,18.50
2016,08,25,08,06,18.60
2016,08,25,08,07,18.60
2016,08,25,08,08,18.70
2016,08,25,08,09,18.70
2016,08,25,08,10,18.70
2016,08,25,08,11,18.80
2016,08,25,08,12,18.80
2016,08,25,08,13,18.80
2016,08,25,08,14,18.80
2016,08,25,08,15,18.90
2016,08,25,08,16,19.00
2016,08,25,08,17,19.00
2016,08,25,08,18,19.10
2016,08,25,08,19,19.20
2016,08,25,08,20,19.30
2016,08,25,08,21,19.40
2016,08,25,08,22,19.40
2016,08,25,08,23,19.50
2016,08,25,08,24,19.50
2016,08,25,08,25,19.60
2016,08,25,08,26,19.60
2016,08,25,08,27,19.60
2016,08,25,08,28,19.60
2016,08,25,08,29,19.60
2016,08,25,08,30,19.60
2016,08,25,08,31,19.60
2016,08,25,08,32,19.60
2016,08,25,08,33,19.70
2016,08,25,08,34,19.70
2016,08,25,08,35,19.70
2016,08,25,08,36,19.80
2016,08,25,08,37,19.80
2016,08,25,08,38,19.80
2016,08,25,08,39,19.80
2016,08,25,08,40,19.90
2016,08,25,08,41,20.00
2016,08,25,08,42,20.10
2016,08,25,08,43,20.10
2016,08,25,08,44,20.20
2016,08,25,08,45,20.20
2016,08,25,08,46,20.30
2016,08,25,08,47,20.30
2016,08,25,08,48,20.30
2016,08,25,08,49,20.30
2016,08,25,08,50,20.30
2016,08,25,08,51,20.30
2016,08,25,08,52,20.40
2016,08,25,08,53,20.50
2016,08,25,08,54,20.50
2016,08,25,08,55,20.60
2016,08,25,08,56,20.60
2016,08,25,08,57,20.60
2016,08,25,08,58,20.60
2016,08,25,08,59,20.60
2016,08,25,09,00,20.60
2016,08,25,09,01,20.60
2016,08,25,09,02,20.60
2016,08,25,09,03,20.60
2016,08,25,09,04,20.60
2016,08,25,09,05,20.70
2016,08,25,09,06,20.70
2016,08,25,09,07,20.70
2016,08,25,09,08,20.80
2016,08,25,09,09,20.80
2016,08,25,09,10,20.90
2016,08,25,09,11,20.90
2016,08,25,09,12,20.90
2016,08,25,09,13,20.80
2016,08,25,09,14,20.70
2016,08,25,09,15,20.60
2016,08,25,09,16,20.50
2016,08,25,09,17,20.50
2016,08,25,09,18,20.40
2016,08,25,09,19,20.50
2016,08,25,09,20,20.50
2016,08,25,09,21,20.50
2016,08,25,09,22,20.50
2016,08,25,09,23,20.60
2016,08,25,09,24,20.60
2016,08,25,09,25,20.70
2016,08,25,09,26,20.70
2016,08,25,09,27,20.80
2016,08,25,09,28,20.90
2016,08,25,09,29,20.90
2016,08,25,09,30,20.90
2016,08,25,09,31,20.90
2016,08,25,09,32,21.00
2016,08,25,09,33,21.10
2016,08,25,09,34,21.20
2016,08,25,09,35,21.20
2016,08,25,09,36,21.20
2016,08,25,09,37,21.30
2016,08,25,09,38,21.30
2016,08,25,09,39,21.40
2016,08,25,09,40,21.40
2016,08,25,09,41,21.50
2016,08,25,09,42,21.50
2016,08,25,09,43,21.50
2016,08,25,09,44,21.60
2016,08,25,09,45,21.70
2016,08,25,09,46,21.70
2016,08,25,09,47,21.80
2016,08,25,09,48,21.80
2016,08,25,09,49,21.90
2016,08,25,09,50,21.90
2016,08,25,09,51,22.00
2016,08,25,09,52,22.10
2016,08,25,09,53,22.10
2016,08,25,09,54,22.10
2016,08,25,09,55,22.10
2016,08,25,09,56,22.10
2016,08,25,09,57,22.00
2016,08,25,09,58,21.90
2016,08,25,09,59,21.80
2016,08,25,10,00,21.70
2016,08,25,10,01,21.70
2016,08,25,10,02,21.60
2016,08,25,10,03,21.50
2016,08,25,10,04,21.40
2016,08,25,10,05,21.30
2016,08,25,10,06,21.20
2016,08,25,10,07,21.20
2016,08,25,10,08,21.30
2016,08,25,10,09,21.40
2016,08,25,10,10,21.50
2016,08,25,10,11,21.60
2016,08,25,10,12,21.60
2016,08,25,10,13,21.60
2016,08,25,10,14,21.70
2016,08,25,10,15,21.70
2016,08,25,10,16,21.70
2016,08,25,10,17,21.80
2016,08,25,10,18,21.90
2016,08,25,10,19,22.10
2016,08,25,10,20,22.20
2016,08,25,10,21,22.30
2016,08,25,10,22,22.50
2016,08,25,10,23,22.50
2016,08,25,10,24,22.50
2016,08,25,10,25,22.60
2016,08,25,10,26,22.60
2016,08,25,10,27,22.60
2016,08,25,10,28,22.60
2016,08,25,10,29,22.70
2016,08,25,10,30,22.70
2016,08,25,10,31,22.80
2016,08,25,10,32,22.90
2016,08,25,10,33,23.00
2016,08,25,10,34,23.00
2016,08,25,10,35,23.10
2016,08,25,10,36,23.10
2016,08,25,10,37,23.20
2016,08,25,10,38,23.30
2016,08,25,10,39,23.30
2016,08,25,10,40,23.40
2016,08,25,10,41,23.50
2016,08,25,10,42,23.50
2016,08,25,10,43,23.60
2016,08,25,10,44,23.70
2016,08,25,10,45,23.70
2016,08,25,10,46,23.80
2016,08,25,10,47,23.80
2016,08,25,10,48,23.90
2016,08,25,10,49,24.00
2016,08,25,10,50,24.10
2016,08,25,10,51,24.20
2016,08,25,10,52,24.30
2016,08,25,10,53,24.30
2016,08,25,10,54,24.40
2016,08,25,10,55,24.40
2016,08,25,10,56,24.40
2016,08,25,10,57,24.40
2016,08,25,10,58,24.50
2016,08,25,10,59,24.50
2016,08,25,11,00,24.60
2016,08,25,11,01,24.60
2016,08,25,11,02,24.70
2016,08,25,11,03,24.70
2016,08,25,11,04,24.80
2016,08,25,11,05,24.80
2016,08,25,11,06,24.80
2016,08,25,11,07,24.80
2016,08,25,11,08,24.80
2016,08,25,11,09,24.90
2016,08,25,11,10,24.90
2016,08,25,11,11,24.90
2016,08,25,11,12,24.90
2016,08,25,11,13,25.00
2016,08,25,11,14,25.10
2016,08,25,11,15,25.20
2016,08,25,11,16,25.30
2016,08,25,11,17,25.40
2016,08,25,11,18,25.60
2016,08,25,11,19,25.70
2016,08,25,11,20,25.80
2016,08,25,11,21,25.90
2016,08,25,11,22,26.00
2016,08,25,11,23,26.00
2016,08,25,11,24,25.90
2016,08,25,11,25,25.90
2016,08,25,11,26,25.80
2016,08,25,11,27,25.80
2016,08,25,11,28,25.80
2016,08,25,11,29,25.90
2016,08,25,11,30,26.00
2016,08,25,11,31,26.00
2016,08,25,11,32,26.00
2016,08,25,11,33,26.10
2016,08,25,11,34,26.00
2016,08,25,11,35,26.00
2016,08,25,11,36,25.90
2016,08,25,11,37,25.90
2016,08,25,11,38,25.90
2016,08,25,11,39,25.90
2016,08,25,11,40,25.90
2016,08,25,11,41,25.90
2016,08,25,11,42,25.90
2016,08,25,11,43,25.90
2016,08,25,11,44,25.90
2016,08,25,11,45,26.00
2016,08,25,11,46,26.10
2016,08,25,11,47,26.10
2016,08,25,11,48,26.20
2016,08,25,11,49,26.30
2016,08,25,11,50,26.40
2016,08,25,11,51,26.50
2016,08,25,11,52,26.60
2016,08,25,11,53,26.60
2016,08,25,11,54,26.70
2016,08,25,11,55,26.80
2016,08,25,11,56,26.80
2016,08,25,11,57,26.90
2016,08,25,11,58,27.10
2016,08,25,11,59,27.10
2016,08,25,12,00,27.20
2016,08,25,12,01,27.30
2016,08,25,12,02,27.40
2016,08,25,12,03,27.50
2016,08,25,12,04,27.60
2016,08,25,12,05,27.60
2016,08,25,12,06,27.60
2016,08,25,12,07,27.50
2016,08,25,12,08,27.40
2016,08,25,12,09,27.40
2016,08,25,12,10,27.50
2016,08,25,12,11,27.60
2016,08,25,12,12,27.50
2016,08,25,12,13,27.60
2016,08,25,12,14,27.60
2016,08,25,12,15,27.60
2016,08,25,12,16,27.60
2016,08,25,12,17,27.60
2016,08,25,12,18,27.70
2016,08,25,12,19,27.70
2016,08,25,12,20,27.80
2016,08,25,12,21,27.80
2016,08,25,12,22,27.80
2016,08,25,12,23,27.80
2016,08,25,12,24,27.90
2016,08,25,12,25,28.00
2016,08,25,12,26,28.20
2016,08,25,12,27,28.30
2016,08,25,12,28,28.50
2016,08,25,12,29,28.60
2016,08,25,12,30,28.70
2016,08,25,12,31,28.80
2016,08,25,12,32,28.90
2016,08,25,12,33,28.90
2016,08,25,12,34,28.90
2016,08,25,12,35,28.90
2016,08,25,12,36,29.00
2016,08,25,12,37,28.90
2016,08,25,12,38,28.80
2016,08,25,12,39,28.80
2016,08,25,12,40,28.80
2016,08,25,12,41,28.80
2016,08,25,12,42,28.80
2016,08,25,12,43,28.80
2016,08,25,12,44,28.80
2016,08,25,12,45,28.80
2016,08,25,12,46,28.80
2016,08,25,12,47,28.90
2016,08,25,12,48,28.90
2016,08,25,12,49,29.00
2016,08,25,12,50,29.10
2016,08,25,12,51,29.10
2016,08,25,12,52,29.20
2016,08,25,12,53,29.30
2016,08,25,12,54,29.30
2016,08,25,12,55,29.30
2016,08,25,12,56,29.40
2016,08,25,12,57,29.50
2016,08,25,12,58,29.50
2016,08,25,12,59,29.60
2016,08,25,13,00,29.60
2016,08,25,13,01,29.70
2016,08,25,13,02,29.80
2016,08,25,13,03,29.90
2016,08,25,13,04,30.10
2016,08,25,13,05,30.20
2016,08,25,13,06,30.30
2016,08,25,13,07,30.30
2016,08,25,13,08,30.30
2016,08,25,13,09,30.30
2016,08,25,13,10,30.30
2016,08,25,13,11,30.30
2016,08,25,13,12,30.30
2016,08,25,13,13,30.20
2016,08,25,13,14,30.20
2016,08,25,13,15,30.20
2016,08,25,13,16,30.20
2016,08,25,13,17,30.20
2016,08,25,13,18,30.20
2016,08,25,13,19,30.30
2016,08,25,13,20,30.40
2016,08,25,13,21,30.40
2016,08,25,13,22,30.50
2016,08,25,13,23,30.50
2016,08,25,13,24,30.60
2016,08,25,13,25,30.60
2016,08,25,13,26,30.60
2016,08,25,13,27,30.50
2016,08,25,13,28,30.40
2016,08,25,13,29,30.40
2016,08,25,13,30,30.40
2016,08,25,13,31,30.40
2016,08,25,13,32,30.50
2016,08,25,13,33,30.60
2016,08,25,13,34,30.70
2016,08,25,13,35,30.70
2016,08,25,13,36,30.70
2016,08,25,13,37,30.60
2016,08,25,13,38,30.50
2016,08,25,13,39,30.50
2016,08,25,13,40,30.40
2016,08,25,13,41,30.40
2016,08,25,13,42,30.40
2016,08,25,13,43,30.40
2016,08,25,13,44,30.40
2016,08,25,13,45,30.50
2016,08,25,13,46,30.60
2016,08,25,13,47,30.70
2016,08,25,13,48,30.80
2016,08,25,13,49,30.80
2016,08,25,13,50,30.70
2016,08,25,13,51,30.60
2016,08,25,13,52,30.60
2016,08,25,13,53,30.60
2016,08,25,13,54,30.50
2016,08,25,13,55,30.50
2016,08,25,13,56,30.60
2016,08,25,13,57,30.60
2016,08,25,13,58,30.60
2016,08,25,13,59,30.60
2016,08,25,14,00,30.60
2016,08,25,14,01,30.60
2016,08,25,14,02,30.60
2016,08,25,14,03,30.60
2016,08,25,14,04,30.60
2016,08,25,14,05,30.60
2016,08,25,14,06,30.70
2016,08,25,14,07,30.70
2016,08,25,14,08,30.80
2016,08,25,14,09,30.90
2016,08,25,14,10,30.90
2016,08,25,14,11,30.90
2016,08,25,14,12,31.00
2016,08,25,14,13,30.90
2016,08,25,14,14,30.80
2016,08,25,14,15,30.70
2016,08,25,14,16,30.60
2016,08,25,14,17,30.60
2016,08,25,14,18,30.60
2016,08,25,14,19,30.60
2016,08,25,14,20,30.60
2016,08,25,14,21,30.60
2016,08,25,14,22,30.70
2016,08,25,14,23,30.70
2016,08,25,14,24,30.70
2016,08,25,14,25,30.70
2016,08,25,14,26,30.70
2016,08,25,14,27,30.70
2016,08,25,14,28,30.80
2016,08,25,14,29,30.80
2016,08,25,14,30,30.80
2016,08,25,14,31,30.80
2016,08,25,14,32,30.90
2016,08,25,14,33,30.90
2016,08,25,14,34,30.90
2016,08,25,14,35,30.90
2016,08,25,14,36,30.90
2016,08,25,14,37,31.00
2016,08,25,14,38,31.10
2016,08,25,14,39,31.10
2016,08,25,14,40,31.20
2016,08,25,14,41,31.20
2016,08,25,14,42,31.20
2016,08,25,14,43,31.20
2016,08,25,14,44,31.30
2016,08,25,14,45,31.30
2016,08,25,14,46,31.30
2016,08,25,14,47,31.30
2016,08,25,14,48,31.30
2016,08,25,14,49,31.20
2016,08,25,14,50,31.10
2016,08,25,14,51,31.00
2016,08,25,14,52,30.90
2016,08,25,14,53,30.80
2016,08,25,14,54,30.80
2016,08,25,14,55,30.80
2016,08,25,14,56,30.80
2016,08,25,14,57,30.90
2016,08,25,14,58,31.00
2016,08,25,14,59,31.10
2016,08,25,15,00,31.10
2016,08,25,15,01,31.10
2016,08,25,15,02,31.10
2016,08,25,15,03,31.10
2016,08,25,15,04,31.20
2016,08,25,15,05,31.30
2016,08,25,15,06,31.30
2016,08,25,15,07,31.40
2016,08,25,15,08,31.50
2016,08,25,15,09,31.50
2016,08,25,15,10,31.60
2016,08,25,15,11,31.70
2016,08,25,15,12,31.80
2016,08,25,15,13,31.80
2016,08,25,15,14,31.80
2016,08,25,15,15,31.80
2016,08,25,15,16,31.80
2016,08,25,15,17,31.80
2016,08,25,15,18,31.80
2016,08,25,15,19,31.70
2016,08,25,15,20,31.60
2016,08,25,15,21,31.50
2016,08,25,15,22,31.50
2016,08,25,15,23,31.40
2016,08,25,15,24,31.40
2016,08,25,15,25,31.30
2016,08,25,15,26,31.30
2016,08,25,15,27,31.30
2016,08,25,15,28,31.40
2016,08,25,15,29,31.40
2016,08,25,15,30,31.50
2016,08,25,15,31,31.60
2016,08,25,15,32,31.70
2016,08,25,15,33,31.80
2016,08,25,15,34,31.90
2016,08,25,15,35,32.00
2016,08,25,15,36,32.10
2016,08,25,15,37,32.20
2016,08,25,15,38,32.20
2016,08,25,15,39,32.20
2016,08,25,15,40,32.30
2016,08,25,15,41,32.40
2016,08,25,15,42,32.50
2016,08,25,15,43,32.60
2016,08,25,15,44,32.70
2016,08,25,15,45,32.80
2016,08,25,15,46,32.90
2016,08,25,15,47,32.90
2016,08,25,15,48,32.80
2016,08,25,15,49,32.70
2016,08,25,15,50,32.70
2016,08,25,15,51,32.60
2016,08,25,15,52,32.60
2016,08,25,15,53,32.60
2016,08,25,15,54,32.60
2016,08,25,15,55,32.60
2016,08,25,15,56,32.70
2016,08,25,15,57,32.70
2016,08,25,15,58,32.80
2016,08,25,15,59,32.90
2016,08,25,16,00,33.00
2016,08,25,16,01,33.00
2016,08,25,16,02,33.10
2016,08,25,16,03,33.20
2016,08,25,16,04,33.20
2016,08,25,16,05,33.30
2016,08,25,16,06,33.40
2016,08,25,16,07,33.50
2016,08,25,16,08,33.60
2016,08,25,16,09,33.70
2016,08,25,16,10,33.70
2016,08,25,16,11,33.80
2016,08,25,16,12,33.70
2016,08,25,16,13,33.70
2016,08,25,16,14,33.60
2016,08,25,16,15,33.60
2016,08,25,16,16,33.60
2016,08,25,16,17,33.50
2016,08,25,16,18,33.50
2016,08,25,16,19,33.50
2016,08,25,16,20,33.50
2016,08,25,16,21,33.40
2016,08,25,16,22,33.30
2016,08,25,16,23,33.20
2016,08,25,16,24,33.00
2016,08,25,16,25,32.80
2016,08,25,16,26,32.70
2016,08,25,16,27,32.60
2016,08,25,16,28,32.60
2016,08,25,16,29,32.60
2016,08,25,16,30,32.60
2016,08,25,16,31,32.70
2016,08,25,16,32,32.80
2016,08,25,16,33,32.80
2016,08,25,16,34,32.90
2016,08,25,16,35,33.00
2016,08,25,16,36,33.10
2016,08,25,16,37,33.10
2016,08,25,16,38,33.20
2016,08,25,16,39,33.20
2016,08,25,16,40,33.20
2016,08,25,16,41,33.30
2016,08,25,16,42,33.30
2016,08,25,16,43,33.30
2016,08,25,16,44,33.30
2016,08,25,16,45,33.30
2016,08,25,16,46,33.30
2016,08,25,16,47,33.30
2016,08,25,16,48,33.20
2016,08,25,16,49,33.20
2016,08,25,16,50,33.10
2016,08,25,16,51,33.10
2016,08,25,16,52,33.10
2016,08,25,16,53,33.10
2016,08,25,16,54,33.10
2016,08,25,16,55,33.20
2016,08,25,16,56,33.20
2016,08,25,16,57,33.20
2016,08,25,16,58,33.20
2016,08,25,16,59,33.20
2016,08,25,17,00,33.20
2016,08,25,17,01,33.20
2016,08,25,17,02,33.10
2016,08,25,17,03,33.10
2016,08,25,17,04,33.10
2016,08,25,17,05,33.00
2016,08,25,17,06,33.00
2016,08,25,17,07,32.90
2016,08,25,17,08,32.90
2016,08,25,17,09,32.90
2016,08,25,17,10,33.00
2016,08,25,17,11,33.00
2016,08,25,17,12,33.10
2016,08,25,17,13,33.10
2016,08,25,17,14,33.10
2016,08,25,17,15,33.10
2016,08,25,17,16,33.10
2016,08,25,17,17,33.10
2016,08,25,17,18,33.10
2016,08,25,17,19,33.10